Flag for U.S.A. Weather past 2 weeks in Ocala, Florida, U.S.A.

Now
90 °F

Partly sunny.


Feels Like: 95 °F
Forecast: 69 / 88 °F
Wind: 3 mph from Northeast

Location: Ocala Municipal

Current Time: Sep 18, 2014 at 3:58:07 PM

Latest Report: Sep 18, 2014 at 2:50 PM


Visibility: 10 mi

Pressure: 29.90 "Hg

Humidity: 52%

Dew point: 70 °F

Location of OcalaLocation

Historic Weather in Ocala — Graph

°F

Ocala temperature yesterday

Maximum temperature yesterday: 86 °F (at 5:50 PM)
Minimum temperature yesterday: 70 °F (at 5:55 AM)
Average temperature yesterday: 74 °F

Past Weeks' High & Low Weather Summary

 TemperatureHumidityPressure
High91 °F (Sep 3, 3:50 PM)100% (Sep 6, 4:35 AM)30.18 "Hg (Sep 6, 4:35 AM)
Low70 °F (Sep 4, 6:50 AM)46% (Sep 3, 3:50 PM)29.87 "Hg (Sep 17, 4:50 PM)
Average76 °F86%30.04 "Hg
* Reported Sep 3 1:50 PM — Sep 18 1:50 PM, Ocala, Weather by CustomWeather, © 2014

Note: Actual official high and low records may vary slightly from our data, if they occured in-between our weather recording intervals... More about our weather records

Advertising

Ocala weather history for previous 24 hours

 ConditionsComfort  
Time TempWeatherWind HumidityBarometerVisibility
1:50 PM
Sep 18
90 °FPartly sunny.5 mph55%29.92 "Hg10 mi
12:50 PM86 °FScattered clouds.No wind59%29.94 "Hg10 mi
11:50 AM84 °FScattered clouds.No wind66%29.96 "Hg10 mi
10:50 AM84 °FPassing clouds.5 mph66%29.96 "Hg10 mi
9:50 AM81 °FSunny.No wind79%29.95 "Hg10 mi
8:50 AM73 °FSunny.No wind94%29.94 "Hg10 mi
7:50 AM70 °FClear.No wind88%29.92 "Hg3 mi
6:50 AM70 °FClear.No wind88%29.91 "Hg5 mi
6:35 AM70 °FClear.No wind88%29.91 "Hg6 mi
5:55 AM70 °FClear.No wind88%29.90 "Hg5 mi
5:35 AM70 °FClear.No wind94%29.90 "Hg5 mi
4:55 AM70 °FClear.No wind94%29.89 "Hg5 mi
4:35 AM70 °FClear.No wind94%29.89 "Hg8 mi
3:55 AM70 °FClear.No wind94%29.88 "Hg7 mi
3:35 AM70 °FClear.No wind94%29.89 "Hg10 mi
3:15 AM70 °FClear.No wind94%29.89 "Hg8 mi
2:55 AM70 °FClear.No wind100%29.90 "Hg4 mi
2:35 AM72 °FClear.3 mph94%29.91 "Hg7 mi
1:55 AM72 °FClear.No wind94%29.91 "Hg5 mi
1:35 AM72 °FClear.No wind94%29.92 "Hg8 mi
1:15 AM72 °FClear.No wind94%29.92 "Hg7 mi
12:55 AM72 °FClear.No wind94%29.92 "Hg10 mi
12:35 AM72 °FClear.No wind94%29.93 "Hg8 mi
12:15 AM72 °FClear.No wind94%29.93 "Hg10 mi
11:55 PM
Sep 17
72 °FClear.No wind94%29.93 "Hg10 mi
11:35 PM72 °FClear.No wind94%29.93 "Hg10 mi
11:15 PM73 °FClear.No wind89%29.94 "Hg10 mi
10:55 PM73 °FClear.No wind89%29.94 "Hg10 mi
10:35 PM73 °FClear.No wind89%29.94 "Hg10 mi
10:15 PM73 °FClear.No wind89%29.94 "Hg10 mi
9:55 PM73 °FClear.No wind89%29.93 "Hg10 mi
9:35 PM73 °FClear.No wind89%29.92 "Hg10 mi
9:15 PM75 °FClear.No wind83%29.91 "Hg10 mi
8:55 PM75 °FClear.No wind83%29.90 "Hg10 mi
8:35 PM75 °FClear.No wind83%29.90 "Hg10 mi
8:15 PM75 °FSunny.No wind83%29.88 "Hg10 mi
7:55 PM79 °FSunny.No wind70%29.88 "Hg9 mi
6:50 PM86 °FScattered clouds.No wind62%29.88 "Hg10 mi
5:50 PM86 °FScattered clouds.3 mph62%29.87 "Hg10 mi
4:50 PM84 °FScattered clouds.3 mph66%29.87 "Hg10 mi
3:50 PM84 °FScattered clouds.5 mph66%29.89 "Hg10 mi
Weather by CustomWeather, © 2014

See weather overviewHow to use our weather pages